Location: ??
(35.4627°N, 139.3695°E)
Time: 15:54:16
(UTC+00:00)

RESURS DK-1 - Pass Details

Date: 25 November 2020
Orbit: 557 x 561 km, 69.9° (Epoch: 20 January)

Event Time Altitude Azimuth Distance (km) Brightness Sun altitude
Rises 20:29:45 0° 205° (SSW) 2,730 5.8 -12.0°
Reaches altitude 10° 20:31:57 10° 207° (SSW) 1,839 4.9 -11.6°
Maximum altitude 20:36:03 76° 293° (WNW) 581 2.3 -10.8°
Drops below altitude 10° 20:40:12 10° 19° (NNE) 1,854 5.0 -10.0°
Sets 20:42:25 0° 21° (NNE) 2,753 5.9 -9.5°
